Weather Roundup
Issued by NWS

Home | Current Version | Previous Version | Graphics & Text | Print | Product List | Glossary Off
Versions: 1 2 3 4 5 6 7 8 9 10 11 12 13 14 15 16 17 18 19 20 21 22 23 24 25 26 27 28 29 30 31 32 33 34 35 36 37 38 39 40 41 42 43 44 45 46 47 48 49 50

000
NZUS93 KARX 242059
HRRWXR

CURRENT HOURLY OBSERVATIONS ACROSS
MUCH OF THE UPPER MISSISSIPPI VALLEY
NATIONAL WEATHER SERVICE LA CROSSE WI
300 PM CST SAT FEB 24 2018


...SOUTHEAST MINNESOTA...


CITY           SKY/WX    TMP DP  RH WIND       PRES   REMARKS
ROCHESTER      LGT SNOW  29  26  89 E15       29.74F FOG     WCI  18
ROCHESTER/MAYO CLOUDY    30  28  92 E9G16     29.76F WCI  21
WINONA         CLOUDY    34  28  80 SE12G17   29.82F HAZE    WCI  25
AUSTIN         MIX PCPN  30  27  86 E15       29.71F WCI  19
ALBERT LEA     MIX PCPN  28  28 100 E12       29.70F VSB 1   WCI  18
DODGE CENTER   LGT SNOW  28  25  86 E16       29.71F WCI  17
PRESTON        CLOUDY    30  27  86 E13       29.76F FOG     WCI  20
OWATONNA       MIX PCPN  28  25  86 E12       29.73F VSB 1   WCI  18
FARIBAULT      MIX PCPN  27  25  93 NE10      29.76F WCI  17
$$

...ELSEWHERE IN MINNESOTA...


CITY           SKY/WX    TMP DP  RH WIND       PRES   REMARKS
MINNEAPOLIS    LGT SNOW  28  25  88 E8        29.82F FOG     WCI  20
INTNL FALLS    FAIR      28   8  43 VRB5      29.91F WCI  23
DULUTH         PTSUNNY   24  15  68 SE12      29.93F WCI  13
RED WING       CLOUDY    28  21  74 E9        29.81F HAZE    WCI  20
REDWOOD FALLS  SNOW      20  19  96 E15G23    29.72F VSB 1/4 WCI   6
MANKATO        LGT SNOW  26  23  88 NE12      29.74F VSB 3/4 WCI  16
WORTHINGTON    LGT SNOW  18  15  88 E8        29.68F FOG     WCI   8
FAIRMONT       SNOW      20  18  92 N12       29.70F VSB 1/2 WCI   8
$$

...SOUTHWEST WISCONSIN...


CITY           SKY/WX    TMP DP  RH WIND       PRES   REMARKS
LA CROSSE      CLOUDY    37  27  67 SE13G22   29.84F WCI  29
PRAIRIE DU CHI DRIZZLE   35  29  80 E12       29.83F WCI  26
BOSCOBEL       CLOUDY    37  28  70 E9        29.84F WCI  30
LONE ROCK      NOT AVBL
PLATTEVILLE    CLOUDY    35  32  90 E12       29.83F WCI  26
FORT MC COY    CLOUDY    35  28  75 E16G23    29.87F WCI  25
MAUSTON-NEW LI CLOUDY    36  27  72 E9G18     29.88F WCI  29
VIROQUA        CLOUDY    33  29  88 E16       29.83F WCI  22
WIS DELLS      CLOUDY    35  27  74 E14       29.89F WCI  25
$$

...ELSEWHERE IN WISCONSIN...


CITY           SKY/WX    TMP DP  RH WIND       PRES   REMARKS
MILWAUKEE      CLOUDY    37  32  82 E14       29.95F WCI  28
MADISON        CLOUDY    36  29  75 E17       29.89F WCI  26
GREEN BAY      CLOUDY    35  26  69 E14G20    30.01F WCI  26
EAU CLAIRE     NOT AVBL
BLACK RVR FLS  CLOUDY    37  24  61 E8G16     29.86F WCI  30
MEDFORD        CLOUDY    32  22  67 E13G21    29.88F WCI  22
WAUSAU         CLOUDY    33  24  69 E15       29.90F WCI  23
WIS RAPIDS     CLOUDY    34  24  67 SE16G26   29.91F WCI  24
MARSHFIELD     CLOUDY    33  25  72 E18G24    29.87F WCI  22
RICE LAKE      FAIR      31  23  72 E8        29.89F WCI  24
$$

...NORTHEAST IOWA...


CITY           SKY/WX    TMP DP  RH WIND       PRES   REMARKS
WATERLOO       CLOUDY    33  33 100 E16G26    29.68F FOG     WCI  23
DUBUQUE        MIX PCPN  34  31  88 E13       29.77F VSB 1   WCI  25
DECORAH        PTSUNNY   32  32 100 E13G20    29.75F FOG     WCI  22
MASON CITY     FOG       31  30  96 E20       29.68F VSB 1   WCI  19
CHARLES CITY   CLOUDY    32  32 100 E21       29.69F FOG     WCI  20
OELWEIN        CLOUDY    34  32  93 E22       29.71F FOG     WCI  22
$$

...ELSEWHERE IN IOWA...


CITY           SKY/WX    TMP DP  RH WIND       PRES   REMARKS
DES MOINES     DRZL/FOG  34  33  96 SE7       29.68F VSB 3/4 WCI  28
IOWA CITY      CLOUDY    38  35  89 E12G21    29.72F FOG     WCI  30
FORT DODGE     MIX PCPN  33  31  92 SW5       29.68F VSB 1   WCI  29
MARSHALLTOWN   CLOUDY    35  34  96 SE15      29.66F FOG     WCI  25
CEDAR RAPIDS   CLOUDY    36  33  89 E20       29.68F FOG     WCI  25
$$

...NORTHERN ILLINOIS...


CITY           SKY/WX    TMP DP  RH WIND       PRES   REMARKS
CHICAGO-OHARE  CLOUDY    40  33  76 E10       29.90F WCI  33
CHICAGO-MIDWAY CLOUDY    41  35  79 E12       29.90F
MOLINE         LGT RAIN  39  38  96 E18       29.76F FOG     WCI  30
ROCKFORD       CLOUDY    38  33  82 E12       29.89F WCI  30
PEORIA         CLOUDY    43  42  97 E13G21    29.80F FOG
$$

NOTE: "FAIR" INDICATES FEW OR NO CLOUDS BELOW 12,000 FEET WITH NO
SIGNIFICANT WEATHER AND/OR OBSTRUCTIONS TO VISIBILITY. WIND
SPEEDS ARE IN MILES-PER-HOUR.




USA.gov is the U.S. government's official web portal to all federal, state and local government web resources and services.